Regional Weather Roundup
Issued by NWS

Home | Current Version | Previous Version | Graphics & Text | Print | Product List | Glossary Off
Versions: 1 2 3 4 5 6 7 8 9 10 11 12 13 14 15 16 17 18 19 20 21 22 23 24 25 26 27 28 29 30 31 32 33 34 35 36 37 38 39 40 41 42 43 44 45 46 47 48 49 50

000
ASUS43 KDMX 190506
RWRIA

WEATHER ROUNDUP FOR IOWA
NATIONAL WEATHER SERVICE DES MOINES IA
1200 AM CDT SAT AUG 19 2017

NOTE: "FAIR" INDICATES FEW OR NO CLOUDS BELOW 12,000 FEET WITH NO
SIGNIFICANT WEATHER AND/OR OBSTRUCTIONS TO VISIBILITY.

* - THESE STATIONS ARE NOT NWS STATIONS...THUS NOT UNDER NWS
QUALITY CONTROL.  THEY ALSO DO NOT REPORT WEATHER SUCH
AS PRECIPITATION OR FOG.

IAZ001>003-012>014-020>022-031>034-043>046-190600-
   NORTHWEST IOWA

CITY           SKY/WX    TMP DP  RH WIND       PRES   REMARKS
CARROLL *      RAIN      68  68 100 CALM      29.91S
CHEROKEE *       N/A     62  62 100 CALM      29.94R
DENISON *      MOCLDY    68  64  88 NW6       29.95R
LE MARS *        N/A     63  61  94 NW3       29.94F
ORANGE CITY *    N/A     64  63  94 NW6       29.95S
SHELDON *        N/A     61  59  94 NW5       29.93S
SIOUX CITY       N/A     65  61  87 N5        29.95S
SPENCER          N/A     60  58  92 CALM      29.94R
STORM LAKE *     N/A     61  59  94 SW7       29.93S
$$

IAZ055>058-069>071-079>083-090>094-190600-
   SOUTHWEST IOWA

CITY           SKY/WX    TMP DP  RH WIND       PRES   REMARKS
ATLANTIC *       N/A     66  64  94 SW3       29.92F
AUDUBON *        N/A     64  63  94 CALM      29.93S
CLARINDA *       N/A     63  63 100 SW3       29.95S FOG
COUNCIL BLFS *   N/A     72  68  88 NW6       29.94S
CRESTON *        N/A     68  64  88 W5        29.94F
HARLAN  *        N/A     66  64  94 W6        29.96S
LAMONI           N/A     68  66  93 W6        29.93S
RED OAK *        N/A     66  64  94 CALM      29.93F
SHENANDOAH *     N/A     64  64 100 CALM      29.94S
$$

IAZ047>049-059>061-072>074-084-190600-
   CENTRAL IOWA

CITY           SKY/WX    TMP DP  RH WIND       PRES   REMARKS
AMES           LGT RAIN  67  67 100 E6        29.90F
ANKENY *       DRIZZLE   68  64  88 CALM      29.92F
BOONE *        CLOUDY    68  64  88 VRB6      29.90F
CHARITON *       N/A     70  66  88 NE5       29.91F
DES MOINES     CLOUDY    74  66  76 E7        29.91S
GRINNELL*        N/A     66  62  87 E3        29.94R
KNOXVILLE *    MOCLDY    70  64  83 E3        29.90F
MARSHALLTOWN   MOCLDY    64  62  93 E5        29.91F
NEWTON *         N/A     68  64  88 E5        29.93R
PELLA *          N/A     70  63  77 E3        29.92F
PERRY *          N/A     69  67  95 SE6       29.91R
$$

IAZ004>006-015-016-023>025-035-036-190600-
   NORTH CENTRAL IOWA

CITY           SKY/WX    TMP DP  RH WIND       PRES   REMARKS
ALGONA *       CLOUDY    64  64 100 NW6       29.93F
CLARION *      CLOUDY    64  63  94 S9G16     29.93S
ESTHERVILLE      N/A     57  57 100 NE5       29.92F
FORT DODGE *     N/A     63  57  82 CALM      29.91F
MASON CITY       N/A     59  57  93 SE6       29.94F
FOREST CITY *    N/A     61  61 100 E3        29.92F
WEBSTER CITY * LGT RAIN  66  63  88 NE10G16   29.91R
IOWA FALLS *   HVY RAIN  65  60  85 N14G20    29.99R
$$

IAZ007>011-017>019-026>030-037>042-050>054-066-190600-
   NORTHEAST IOWA

CITY           SKY/WX    TMP DP  RH WIND       PRES   REMARKS
CEDAR RAPIDS     N/A     62  60  93 CALM      29.92R
CHARLES CITY * CLOUDY    61  61 100 CALM      29.94S
CLINTON *        N/A     62  60  93 N6        29.92S
DECORAH *        N/A     57  57 100 CALM      29.95R FOG
DUBUQUE          N/A     61  57  87 CALM      29.94S
MONTICELLO *     N/A     59  59 100 CALM      29.93R FOG
OELWEIN *        N/A     59  59 100 NE6       29.94F
WATERLOO       MOCLDY    60  58  92 CALM      29.92S
$$

IAZ064-065-067-068-078-190600-
   EAST CENTRAL IOWA

CITY           SKY/WX    TMP DP  RH WIND       PRES   REMARKS
DAVENPORT        N/A     63  60  90 NE6       29.93S
IOWA CITY        N/A     69  60  73 N5        29.93S
MT. PLEASANT *   N/A     68  67  97 NE6       29.91R
MUSCATINE *      N/A     66  61  82 N3        29.91R
QUAD CITIES      N/A     71  61  70 NE5       29.91S
$$

IAZ062-063-075>077-085>089-095>099-190600-
   SOUTHEAST IOWA

CITY           SKY/WX    TMP DP  RH WIND       PRES   REMARKS
BURLINGTON       N/A     67  66  97 NE3       29.89F
FAIRFIELD *      N/A     68  64  88 N7        29.91S
FORT MADISON *   N/A     64  64 100 N5        29.91R FOG
KEOKUK *         N/A     68  64  88 SW3       29.88F
OSKALOOSA *      N/A     67  65  92 NE3       29.92S
CENTERVILLE *    N/A     66  64  94 CALM      29.93S
OTTUMWA          N/A     71  67  87 NE7       29.91S
WASHINGTON *     N/A     66  64  94 NE6       29.91F
$$

ABBREVIATIONS USED IN REMARKS
   TC - TEMPERATURES IN CELSIUS
  WCI - WIND CHILL INDEX
   HX - HEAT INDEX
  VSB - VISIBILITY
$$





USA.gov is the U.S. government's official web portal to all federal, state and local government web resources and services.